Wetterdaten: Woche 10.11.25 - 16.11.25 (KW46)
Datum Zeit Temp. I. Temp. A. Feuchte I. Feuchte A. Luftdruck Regen Wind Richtung Sonnenschein Solar Taupunkt Windchill Windböen
10.11.2025 00:00 21,3 °C 8,5 °C 58 % 94 % 1016,2 hPa 0,2 l/m² 0,0 km/h (0 Bft) SW 0,00 h 0 W/m² 7,6 °C 8,5 °C 0,0 km/h (0 Bft)
10.11.2025 01:00 21,2 °C 8,8 °C 58 % 94 % 1016,0 hPa 0,4 l/m² 1,3 km/h (1 Bft) SW 0,00 h 0 W/m² 7,9 °C 8,8 °C 3,4 km/h (1 Bft)
10.11.2025 02:00 21,2 °C 8,8 °C 58 % 94 % 1015,9 hPa 0,0 l/m² 1,2 km/h (1 Bft) SW 0,00 h 0 W/m² 7,9 °C 8,8 °C 2,8 km/h (1 Bft)
10.11.2025 03:00 21,2 °C 8,6 °C 58 % 94 % 1015,8 hPa 0,0 l/m² 0,4 km/h (0 Bft) SW 0,00 h 0 W/m² 7,7 °C 8,6 °C 1,1 km/h (1 Bft)
10.11.2025 04:00 21,2 °C 8,2 °C 58 % 94 % 1015,7 hPa 0,0 l/m² 0,0 km/h (0 Bft) SW 0,00 h 0 W/m² 7,3 °C 8,2 °C 0,3 km/h (0 Bft)
10.11.2025 05:00 21,2 °C 7,8 °C 58 % 94 % 1015,7 hPa 0,0 l/m² 0,0 km/h (0 Bft) SW 0,00 h 0 W/m² 6,9 °C 7,8 °C 0,0 km/h (0 Bft)
10.11.2025 06:00 21,2 °C 7,5 °C 58 % 94 % 1015,7 hPa 0,0 l/m² 0,0 km/h (0 Bft) SW 0,00 h 0 W/m² 6,6 °C 7,5 °C 0,0 km/h (0 Bft)
10.11.2025 07:00 21,2 °C 7,1 °C 57 % 94 % 1016,0 hPa 0,0 l/m² 0,0 km/h (0 Bft) SW 0,00 h 8 W/m² 6,2 °C 7,1 °C 0,1 km/h (0 Bft)
10.11.2025 08:00 21,2 °C 7,3 °C 57 % 94 % 1016,2 hPa 0,0 l/m² 0,0 km/h (0 Bft) SW 0,12 h 35 W/m² 6,4 °C 7,3 °C 0,0 km/h (0 Bft)
10.11.2025 09:00 21,2 °C 8,2 °C 57 % 95 % 1016,3 hPa 0,0 l/m² 0,0 km/h (0 Bft) SW 1,00 h 87 W/m² 7,5 °C 8,2 °C 0,0 km/h (0 Bft)
10.11.2025 10:00 21,4 °C 10,2 °C 57 % 95 % 1016,1 hPa 0,0 l/m² 1,3 km/h (1 Bft) S-SW 1,00 h 274 W/m² 9,4 °C 10,2 °C 2,7 km/h (1 Bft)
10.11.2025 11:00 21,3 °C 11,0 °C 57 % 94 % 1015,7 hPa 0,0 l/m² 4,4 km/h (1 Bft) S-SW 1,00 h 265 W/m² 10,1 °C 10,6 °C 5,8 km/h (2 Bft)
10.11.2025 12:00 21,5 °C 12,8 °C 56 % 88 % 1015,4 hPa 0,0 l/m² 2,0 km/h (1 Bft) S-SW 0,98 h 379 W/m² 10,9 °C 12,8 °C 3,8 km/h (1 Bft)
10.11.2025 13:00 21,6 °C 13,8 °C 56 % 79 % 1015,0 hPa 0,0 l/m² 4,6 km/h (1 Bft) S 1,00 h 357 W/m² 10,2 °C 13,5 °C 6,8 km/h (2 Bft)
10.11.2025 14:00 21,6 °C 13,0 °C 56 % 79 % 1014,8 hPa 0,0 l/m² 8,2 km/h (2 Bft) S-SW 1,02 h 207 W/m² 9,5 °C 11,9 °C 10,6 km/h (2 Bft)
10.11.2025 15:00 21,6 °C 12,4 °C 57 % 81 % 1014,7 hPa 0,0 l/m² 3,0 km/h (1 Bft) SW 0,43 h 64 W/m² 9,2 °C 12,4 °C 4,7 km/h (1 Bft)
10.11.2025 16:00 21,4 °C 10,7 °C 57 % 82 % 1014,5 hPa 0,0 l/m² 0,1 km/h (0 Bft) SW 0,00 h 13 W/m² 7,8 °C 10,7 °C 0,3 km/h (0 Bft)
10.11.2025 17:00 21,3 °C 8,0 °C 56 % 84 % 1014,6 hPa 0,0 l/m² 0,4 km/h (0 Bft) SW 0,00 h 0 W/m² 5,4 °C 8,0 °C 0,6 km/h (0 Bft)
10.11.2025 18:00 21,3 °C 6,0 °C 56 % 87 % 1014,7 hPa 0,0 l/m² 0,2 km/h (0 Bft) S 0,00 h 0 W/m² 4,0 °C 6,0 °C 0,3 km/h (0 Bft)
10.11.2025 19:00 21,4 °C 4,7 °C 56 % 89 % 1014,5 hPa 0,0 l/m² 0,0 km/h (0 Bft) S 0,00 h 0 W/m² 3,0 °C 4,7 °C 0,0 km/h (0 Bft)
10.11.2025 20:00 21,6 °C 3,4 °C 57 % 89 % 1014,3 hPa 0,0 l/m² 0,6 km/h (0 Bft) S 0,00 h 0 W/m² 1,8 °C 3,4 °C 1,3 km/h (1 Bft)
10.11.2025 21:00 21,7 °C 2,9 °C 57 % 91 % 1014,2 hPa 0,0 l/m² 0,0 km/h (0 Bft) O 0,00 h 0 W/m² 1,6 °C 2,9 °C 0,0 km/h (0 Bft)
10.11.2025 22:00 21,6 °C 2,2 °C 57 % 91 % 1014,1 hPa 0,0 l/m² 0,8 km/h (0 Bft) O 0,00 h 0 W/m² 0,9 °C 2,2 °C 1,3 km/h (1 Bft)
10.11.2025 23:00 21,5 °C 1,8 °C 57 % 92 % 1014,0 hPa 0,0 l/m² 0,2 km/h (0 Bft) O-SO 0,00 h 0 W/m² 0,7 °C 1,8 °C 0,5 km/h (0 Bft)
11.11.2025 00:00 21,4 °C 2,3 °C 57 % 93 % 1013,8 hPa 0,2 l/m² 0,0 km/h (0 Bft) O-SO 0,00 h 0 W/m² 1,2 °C 2,3 °C 0,1 km/h (0 Bft)
11.11.2025 01:00 21,4 °C 1,6 °C 57 % 93 % 1013,4 hPa 0,0 l/m² 1,7 km/h (1 Bft) O-SO 0,00 h 0 W/m² 0,6 °C 1,6 °C 2,7 km/h (1 Bft)
11.11.2025 02:00 21,3 °C 1,4 °C 56 % 93 % 1013,0 hPa 0,0 l/m² 1,9 km/h (1 Bft) O-SO 0,00 h 0 W/m² 0,4 °C 1,4 °C 3,0 km/h (1 Bft)
11.11.2025 03:00 21,4 °C 2,3 °C 56 % 94 % 1012,4 hPa 0,0 l/m² 0,3 km/h (0 Bft) O-SO 0,00 h 0 W/m² 1,4 °C 2,3 °C 0,7 km/h (0 Bft)
11.11.2025 04:00 21,3 °C 3,9 °C 56 % 94 % 1012,2 hPa 0,0 l/m² 0,1 km/h (0 Bft) O-SO 0,00 h 0 W/m² 3,1 °C 3,9 °C 0,3 km/h (0 Bft)
11.11.2025 05:00 21,3 °C 5,2 °C 56 % 95 % 1012,3 hPa 0,0 l/m² 0,8 km/h (0 Bft) S 0,00 h 0 W/m² 4,4 °C 5,2 °C 2,2 km/h (1 Bft)
11.11.2025 06:00 21,3 °C 6,5 °C 56 % 95 % 1012,6 hPa 0,0 l/m² 0,8 km/h (0 Bft) S-SW 0,00 h 0 W/m² 5,7 °C 6,5 °C 1,9 km/h (1 Bft)
11.11.2025 07:00 21,4 °C 6,7 °C 56 % 95 % 1013,1 hPa 0,0 l/m² 5,0 km/h (1 Bft) S-SW 0,00 h 9 W/m² 5,9 °C 5,4 °C 7,4 km/h (2 Bft)
11.11.2025 08:00 21,3 °C 7,4 °C 56 % 95 % 1013,7 hPa 0,0 l/m² 6,0 km/h (2 Bft) SW 0,10 h 28 W/m² 6,7 °C 6,8 °C 9,2 km/h (2 Bft)
11.11.2025 09:00 21,3 °C 8,6 °C 56 % 95 % 1014,4 hPa 0,0 l/m² 7,5 km/h (2 Bft) SW 1,00 h 104 W/m² 7,8 °C 7,4 °C 11,1 km/h (2 Bft)
11.11.2025 10:00 21,4 °C 9,5 °C 55 % 94 % 1014,8 hPa 0,0 l/m² 11,5 km/h (2 Bft) SW 1,00 h 96 W/m² 8,7 °C 6,3 °C 16,1 km/h (3 Bft)
11.11.2025 11:00 21,5 °C 11,3 °C 55 % 90 % 1014,9 hPa 0,0 l/m² 14,9 km/h (3 Bft) SW 1,00 h 348 W/m² 9,7 °C 6,8 °C 20,1 km/h (4 Bft)
11.11.2025 12:00 21,7 °C 12,5 °C 55 % 81 % 1015,0 hPa 0,0 l/m² 15,4 km/h (3 Bft) SW 0,98 h 224 W/m² 9,4 °C 8,1 °C 21,6 km/h (4 Bft)
11.11.2025 13:00 21,6 °C 12,2 °C 55 % 80 % 1015,1 hPa 0,0 l/m² 17,7 km/h (3 Bft) SW 1,02 h 243 W/m² 8,9 °C 6,9 °C 23,9 km/h (4 Bft)
11.11.2025 14:00 21,5 °C 12,7 °C 55 % 78 % 1015,1 hPa 0,0 l/m² 15,6 km/h (3 Bft) SW 1,00 h 165 W/m² 9,0 °C 8,2 °C 21,1 km/h (4 Bft)
11.11.2025 15:00 21,4 °C 12,0 °C 56 % 80 % 1015,5 hPa 0,0 l/m² 12,7 km/h (3 Bft) SW 0,73 h 72 W/m² 8,6 °C 8,7 °C 17,1 km/h (3 Bft)
11.11.2025 16:00 21,3 °C 10,8 °C 56 % 81 % 1015,9 hPa 0,0 l/m² 3,0 km/h (1 Bft) SW 0,00 h 10 W/m² 7,7 °C 10,8 °C 4,2 km/h (1 Bft)
11.11.2025 17:00 21,2 °C 9,2 °C 56 % 83 % 1016,1 hPa 0,0 l/m² 2,0 km/h (1 Bft) SW 0,00 h 0 W/m² 6,4 °C 9,2 °C 3,5 km/h (1 Bft)
11.11.2025 18:00 21,2 °C 7,7 °C 57 % 85 % 1016,6 hPa 0,0 l/m² 1,0 km/h (0 Bft) SW 0,00 h 0 W/m² 5,3 °C 7,7 °C 2,1 km/h (1 Bft)
11.11.2025 19:00 21,2 °C 6,3 °C 57 % 87 % 1016,9 hPa 0,0 l/m² 1,0 km/h (0 Bft) SO 0,00 h 0 W/m² 4,3 °C 6,3 °C 2,4 km/h (1 Bft)
11.11.2025 20:00 21,4 °C 5,1 °C 57 % 89 % 1016,9 hPa 0,0 l/m² 0,5 km/h (0 Bft) SO 0,00 h 0 W/m² 3,4 °C 5,1 °C 1,0 km/h (0 Bft)
11.11.2025 21:00 21,6 °C 4,0 °C 57 % 90 % 1017,1 hPa 0,0 l/m² 0,0 km/h (0 Bft) SO 0,00 h 0 W/m² 2,5 °C 4,0 °C 0,0 km/h (0 Bft)
11.11.2025 22:00 21,4 °C 3,2 °C 57 % 90 % 1017,2 hPa 0,0 l/m² 0,0 km/h (0 Bft) SO 0,00 h 0 W/m² 1,7 °C 3,2 °C 0,0 km/h (0 Bft)
11.11.2025 23:00 21,3 °C 3,0 °C 57 % 91 % 1017,2 hPa 0,0 l/m² 0,1 km/h (0 Bft) SO 0,00 h 0 W/m² 1,7 °C 3,0 °C 0,5 km/h (0 Bft)
12.11.2025 00:00 21,4 °C 2,3 °C 57 % 92 % 1017,1 hPa 0,0 l/m² 0,8 km/h (0 Bft) SO 0,00 h 0 W/m² 1,1 °C 2,3 °C 1,8 km/h (1 Bft)
12.11.2025 01:00 21,3 °C 2,1 °C 58 % 92 % 1017,4 hPa 0,2 l/m² 0,1 km/h (0 Bft) SO 0,00 h 0 W/m² 0,9 °C 2,1 °C 0,3 km/h (0 Bft)
12.11.2025 02:00 21,3 °C 1,4 °C 57 % 92 % 1017,3 hPa 0,0 l/m² 0,5 km/h (0 Bft) SO 0,00 h 0 W/m² 0,3 °C 1,4 °C 1,3 km/h (1 Bft)
12.11.2025 03:00 21,3 °C 1,5 °C 57 % 93 % 1016,6 hPa 0,0 l/m² 1,0 km/h (0 Bft) O-NO 0,00 h 0 W/m² 0,5 °C 1,5 °C 2,0 km/h (1 Bft)
12.11.2025 04:00 21,3 °C 1,4 °C 57 % 93 % 1016,7 hPa 0,0 l/m² 0,1 km/h (0 Bft) O-NO 0,00 h 0 W/m² 0,4 °C 1,4 °C 0,3 km/h (0 Bft)
12.11.2025 05:00 21,3 °C 1,4 °C 57 % 93 % 1016,5 hPa 0,0 l/m² 0,9 km/h (0 Bft) O-NO 0,00 h 0 W/m² 0,4 °C 1,4 °C 1,9 km/h (1 Bft)
12.11.2025 06:00 21,2 °C 1,3 °C 56 % 93 % 1016,2 hPa 0,0 l/m² 0,2 km/h (0 Bft) O-NO 0,00 h 0 W/m² 0,3 °C 1,3 °C 0,6 km/h (0 Bft)
12.11.2025 07:00 21,1 °C 1,4 °C 55 % 93 % 1016,5 hPa 0,0 l/m² 0,1 km/h (0 Bft) O-NO 0,00 h 13 W/m² 0,4 °C 1,4 °C 0,2 km/h (0 Bft)
12.11.2025 08:00 21,2 °C 2,6 °C 55 % 94 % 1016,5 hPa 0,0 l/m² 0,1 km/h (0 Bft) O-SO 0,53 h 64 W/m² 1,8 °C 2,6 °C 0,6 km/h (0 Bft)
12.11.2025 09:00 21,4 °C 6,3 °C 55 % 95 % 1016,3 hPa 0,0 l/m² 1,2 km/h (1 Bft) SO 1,00 h 180 W/m² 5,6 °C 6,3 °C 2,7 km/h (1 Bft)
12.11.2025 10:00 21,5 °C 8,4 °C 55 % 95 % 1016,0 hPa 0,0 l/m² 5,3 km/h (1 Bft) O-SO 1,00 h 293 W/m² 7,7 °C 7,9 °C 8,6 km/h (2 Bft)
12.11.2025 11:00 21,7 °C 10,8 °C 55 % 90 % 1015,8 hPa 0,0 l/m² 10,0 km/h (2 Bft) S-SO 1,00 h 253 W/m² 9,3 °C 8,7 °C 14,5 km/h (3 Bft)
12.11.2025 12:00 21,6 °C 11,4 °C 55 % 84 % 1015,3 hPa 0,0 l/m² 9,8 km/h (2 Bft) S-SO 1,00 h 159 W/m² 8,8 °C 9,4 °C 14,1 km/h (3 Bft)
12.11.2025 13:00 21,6 °C 12,3 °C 55 % 82 % 1014,8 hPa 0,0 l/m² 8,6 km/h (2 Bft) S-SO 1,00 h 179 W/m² 9,3 °C 10,9 °C 12,9 km/h (3 Bft)
12.11.2025 14:00 21,5 °C 13,0 °C 55 % 80 % 1014,5 hPa 0,0 l/m² 6,2 km/h (2 Bft) S-SO 1,00 h 148 W/m² 9,6 °C 12,6 °C 8,9 km/h (2 Bft)
12.11.2025 15:00 21,4 °C 12,5 °C 56 % 80 % 1014,2 hPa 0,0 l/m² 7,9 km/h (2 Bft) S-SO 0,55 h 52 W/m² 9,2 °C 11,3 °C 11,7 km/h (2 Bft)
12.11.2025 16:00 21,3 °C 11,2 °C 55 % 81 % 1014,0 hPa 0,0 l/m² 3,7 km/h (1 Bft) S 0,00 h 11 W/m² 8,0 °C 11,2 °C 6,4 km/h (2 Bft)
12.11.2025 17:00 21,2 °C 10,6 °C 55 % 82 % 1013,8 hPa 0,0 l/m² 11,4 km/h (2 Bft) S 0,00 h 0 W/m² 7,6 °C 7,4 °C 15,8 km/h (3 Bft)
12.11.2025 18:00 21,2 °C 10,1 °C 55 % 82 % 1014,0 hPa 0,0 l/m² 10,9 km/h (2 Bft) S 0,00 h 0 W/m² 7,2 °C 7,3 °C 15,0 km/h (3 Bft)
12.11.2025 19:00 21,1 °C 9,0 °C 55 % 84 % 1013,9 hPa 0,0 l/m² 7,1 km/h (2 Bft) S 0,00 h 0 W/m² 6,5 °C 8,2 °C 10,1 km/h (2 Bft)
12.11.2025 20:00 21,3 °C 8,5 °C 56 % 85 % 1014,0 hPa 0,0 l/m² 0,4 km/h (0 Bft) S 0,00 h 0 W/m² 6,1 °C 8,5 °C 1,0 km/h (0 Bft)
12.11.2025 21:00 21,3 °C 7,8 °C 56 % 85 % 1013,8 hPa 0,0 l/m² 0,4 km/h (0 Bft) S-SO 0,00 h 0 W/m² 5,5 °C 7,8 °C 1,4 km/h (1 Bft)
12.11.2025 22:00 21,3 °C 6,9 °C 56 % 86 % 1013,7 hPa 0,0 l/m² 1,1 km/h (0 Bft) S-SO 0,00 h 0 W/m² 4,7 °C 6,9 °C 2,6 km/h (1 Bft)
12.11.2025 23:00 21,2 °C 6,7 °C 56 % 87 % 1013,4 hPa 0,0 l/m² 1,1 km/h (0 Bft) S-SO 0,00 h 0 W/m² 4,7 °C 6,7 °C 2,4 km/h (1 Bft)
13.11.2025 00:00 21,3 °C 6,8 °C 56 % 86 % 1013,0 hPa 0,0 l/m² 0,6 km/h (0 Bft) O-SO 0,00 h 0 W/m² 4,7 °C 6,8 °C 2,1 km/h (1 Bft)
13.11.2025 01:00 21,2 °C 6,4 °C 56 % 86 % 1012,9 hPa 0,0 l/m² 1,9 km/h (1 Bft) SO 0,00 h 0 W/m² 4,1 °C 6,4 °C 3,8 km/h (1 Bft)
13.11.2025 02:00 21,2 °C 5,4 °C 56 % 86 % 1012,4 hPa 0,0 l/m² 1,7 km/h (1 Bft) SO 0,00 h 0 W/m² 3,3 °C 5,4 °C 3,1 km/h (1 Bft)
13.11.2025 03:00 21,3 °C 4,9 °C 56 % 88 % 1011,8 hPa 0,0 l/m² 3,0 km/h (1 Bft) O-NO 0,00 h 0 W/m² 3,2 °C 4,9 °C 4,6 km/h (1 Bft)
13.11.2025 04:00 21,2 °C 4,6 °C 56 % 89 % 1011,5 hPa 0,0 l/m² 2,9 km/h (1 Bft) NO 0,00 h 0 W/m² 3,0 °C 4,6 °C 4,5 km/h (1 Bft)
13.11.2025 05:00 21,3 °C 5,7 °C 56 % 91 % 1011,3 hPa 0,0 l/m² 3,8 km/h (1 Bft) S 0,00 h 0 W/m² 4,3 °C 5,7 °C 6,5 km/h (2 Bft)
13.11.2025 06:00 21,3 °C 7,0 °C 56 % 88 % 1011,3 hPa 0,0 l/m² 2,9 km/h (1 Bft) SO 0,00 h 0 W/m² 5,1 °C 6,7 °C 5,6 km/h (2 Bft)
13.11.2025 07:00 21,3 °C 7,2 °C 54 % 85 % 1011,2 hPa 0,0 l/m² 6,5 km/h (2 Bft) SO 0,00 h 15 W/m² 4,9 °C 6,2 °C 9,8 km/h (2 Bft)
13.11.2025 08:00 21,3 °C 8,4 °C 54 % 86 % 1011,5 hPa 0,0 l/m² 10,1 km/h (2 Bft) S 0,63 h 66 W/m² 6,1 °C 5,8 °C 13,8 km/h (3 Bft)
13.11.2025 09:00 21,4 °C 10,8 °C 54 % 83 % 1011,6 hPa 0,0 l/m² 8,0 km/h (2 Bft) S 1,00 h 195 W/m² 7,9 °C 9,5 °C 11,9 km/h (2 Bft)
13.11.2025 10:00 21,7 °C 13,4 °C 54 % 75 % 1011,9 hPa 0,0 l/m² 14,3 km/h (3 Bft) S-SW 1,00 h 264 W/m² 9,1 °C 9,6 °C 19,4 km/h (3 Bft)
13.11.2025 11:00 21,8 °C 14,4 °C 54 % 73 % 1011,6 hPa 0,0 l/m² 16,8 km/h (3 Bft) SW 1,00 h 267 W/m² 9,6 °C 10,0 °C 21,4 km/h (4 Bft)
13.11.2025 12:00 21,7 °C 14,5 °C 54 % 73 % 1011,5 hPa 0,0 l/m² 18,2 km/h (3 Bft) SW 1,00 h 203 W/m² 9,7 °C 9,7 °C 22,6 km/h (4 Bft)
13.11.2025 13:00 21,7 °C 15,3 °C 54 % 72 % 1011,6 hPa 0,0 l/m² 4,1 km/h (1 Bft) S-SW 1,00 h 177 W/m² 10,2 °C 14,6 °C 5,6 km/h (2 Bft)
13.11.2025 14:00 21,6 °C 16,3 °C 54 % 69 % 1011,6 hPa 0,0 l/m² 1,7 km/h (1 Bft) W 1,00 h 85 W/m² 10,5 °C 16,3 °C 3,8 km/h (1 Bft)
13.11.2025 15:00 21,4 °C 15,6 °C 55 % 70 % 1011,6 hPa 0,0 l/m² 3,7 km/h (1 Bft) SO 0,03 h 29 W/m² 10,2 °C 15,3 °C 5,5 km/h (2 Bft)
13.11.2025 16:00 21,3 °C 15,0 °C 55 % 71 % 1011,9 hPa 0,0 l/m² 5,9 km/h (2 Bft) S-SW 0,00 h 8 W/m² 9,8 °C 14,1 °C 10,3 km/h (2 Bft)
13.11.2025 17:00 21,4 °C 14,3 °C 55 % 73 % 1012,1 hPa 0,0 l/m² 10,2 km/h (2 Bft) S-SW 0,00 h 0 W/m² 9,5 °C 12,3 °C 13,2 km/h (3 Bft)
13.11.2025 18:00 21,3 °C 12,9 °C 55 % 77 % 1012,8 hPa 0,0 l/m² 12,4 km/h (2 Bft) SW 0,00 h 0 W/m² 9,0 °C 9,8 °C 16,4 km/h (3 Bft)
13.11.2025 19:00 21,4 °C 12,8 °C 56 % 77 % 1013,2 hPa 0,0 l/m² 13,1 km/h (3 Bft) SW 0,00 h 0 W/m² 8,8 °C 9,5 °C 16,9 km/h (3 Bft)
13.11.2025 20:00 21,3 °C 12,3 °C 56 % 77 % 1013,3 hPa 0,0 l/m² 0,4 km/h (0 Bft) W-SW 0,00 h 0 W/m² 8,4 °C 12,3 °C 0,9 km/h (0 Bft)
13.11.2025 21:00 21,4 °C 11,1 °C 57 % 81 % 1013,4 hPa 0,0 l/m² 0,0 km/h (0 Bft) N-NO 0,00 h 0 W/m² 7,9 °C 11,1 °C 0,0 km/h (0 Bft)
13.11.2025 22:00 21,6 °C 10,2 °C 57 % 83 % 1013,3 hPa 0,0 l/m² 0,0 km/h (0 Bft) W-NW 0,00 h 0 W/m² 7,5 °C 10,2 °C 0,2 km/h (0 Bft)
13.11.2025 23:00 21,4 °C 9,3 °C 57 % 86 % 1013,0 hPa 0,0 l/m² 0,0 km/h (0 Bft) W-NW 0,00 h 0 W/m² 7,1 °C 9,3 °C 0,0 km/h (0 Bft)
14.11.2025 00:00 21,4 °C 8,9 °C 57 % 88 % 1012,4 hPa 0,0 l/m² 0,0 km/h (0 Bft) W-NW 0,00 h 0 W/m² 7,0 °C 8,9 °C 0,0 km/h (0 Bft)
14.11.2025 01:00 21,3 °C 8,5 °C 57 % 89 % 1012,3 hPa 0,0 l/m² 0,0 km/h (0 Bft) W-NW 0,00 h 0 W/m² 6,8 °C 8,5 °C 0,0 km/h (0 Bft)
14.11.2025 02:00 21,2 °C 8,4 °C 57 % 90 % 1012,0 hPa 0,0 l/m² 0,0 km/h (0 Bft) W-NW 0,00 h 0 W/m² 6,8 °C 8,4 °C 0,0 km/h (0 Bft)
14.11.2025 03:00 21,2 °C 8,5 °C 56 % 90 % 1011,4 hPa 0,0 l/m² 0,3 km/h (0 Bft) W-SW 0,00 h 0 W/m² 7,0 °C 8,5 °C 0,7 km/h (0 Bft)
14.11.2025 04:00 21,2 °C 8,9 °C 56 % 90 % 1010,5 hPa 0,0 l/m² 0,0 km/h (0 Bft) S 0,00 h 0 W/m² 7,4 °C 8,9 °C 0,0 km/h (0 Bft)
14.11.2025 05:00 21,3 °C 8,8 °C 57 % 89 % 1010,3 hPa 0,0 l/m² 0,1 km/h (0 Bft) W 0,00 h 0 W/m² 7,2 °C 8,8 °C 0,1 km/h (0 Bft)
14.11.2025 06:00 21,3 °C 8,5 °C 57 % 89 % 1009,9 hPa 0,0 l/m² 0,0 km/h (0 Bft) W 0,00 h 0 W/m² 6,8 °C 8,5 °C 0,0 km/h (0 Bft)
14.11.2025 07:00 21,2 °C 8,3 °C 56 % 90 % 1009,8 hPa 0,0 l/m² 0,0 km/h (0 Bft) W 0,00 h 7 W/m² 6,8 °C 8,3 °C 0,0 km/h (0 Bft)
14.11.2025 08:00 21,1 °C 8,4 °C 56 % 91 % 1009,6 hPa 0,0 l/m² 0,0 km/h (0 Bft) W 0,00 h 23 W/m² 6,9 °C 8,4 °C 0,0 km/h (0 Bft)
14.11.2025 09:00 21,2 °C 9,0 °C 56 % 92 % 1009,0 hPa 0,0 l/m² 0,0 km/h (0 Bft) W 0,58 h 55 W/m² 7,7 °C 9,0 °C 0,0 km/h (0 Bft)
14.11.2025 10:00 21,2 °C 10,1 °C 56 % 91 % 1008,6 hPa 0,0 l/m² 0,3 km/h (0 Bft) O-SO 1,00 h 96 W/m² 8,7 °C 10,1 °C 0,7 km/h (0 Bft)
14.11.2025 11:00 21,2 °C 12,2 °C 56 % 86 % 1008,2 hPa 0,0 l/m² 0,1 km/h (0 Bft) W-SW 1,00 h 246 W/m² 9,9 °C 12,2 °C 0,4 km/h (0 Bft)
14.11.2025 12:00 21,3 °C 15,4 °C 56 % 78 % 1007,6 hPa 0,0 l/m² 0,0 km/h (0 Bft) W-SW 1,00 h 202 W/m² 11,6 °C 15,4 °C 0,2 km/h (0 Bft)
14.11.2025 13:00 21,2 °C 16,8 °C 56 % 72 % 1007,0 hPa 0,0 l/m² 0,3 km/h (0 Bft) W-SW 0,98 h 156 W/m² 11,7 °C 16,8 °C 0,8 km/h (0 Bft)
14.11.2025 14:00 21,2 °C 16,2 °C 56 % 69 % 1006,8 hPa 0,0 l/m² 2,6 km/h (1 Bft) SW 0,82 h 60 W/m² 10,6 °C 16,1 °C 4,0 km/h (1 Bft)
14.11.2025 15:00 21,2 °C 14,3 °C 56 % 72 % 1007,0 hPa 0,0 l/m² 5,5 km/h (2 Bft) SW 0,00 h 20 W/m² 9,3 °C 13,6 °C 8,1 km/h (2 Bft)
14.11.2025 16:00 21,2 °C 13,6 °C 56 % 73 % 1007,2 hPa 0,0 l/m² 6,6 km/h (2 Bft) SW 0,00 h 0 W/m² 8,9 °C 12,7 °C 9,1 km/h (2 Bft)
14.11.2025 17:00 21,3 °C 12,8 °C 56 % 75 % 1007,3 hPa 0,0 l/m² 3,9 km/h (1 Bft) SW 0,00 h 0 W/m² 8,6 °C 12,8 °C 5,6 km/h (2 Bft)
14.11.2025 18:00 21,4 °C 12,2 °C 58 % 77 % 1008,1 hPa 0,0 l/m² 0,6 km/h (0 Bft) W-SW 0,00 h 0 W/m² 8,3 °C 12,2 °C 2,0 km/h (1 Bft)
14.11.2025 19:00 21,4 °C 11,8 °C 58 % 82 % 1008,6 hPa 0,0 l/m² 0,2 km/h (0 Bft) NW 0,00 h 0 W/m² 8,8 °C 11,8 °C 1,1 km/h (1 Bft)
14.11.2025 20:00 21,6 °C 11,1 °C 58 % 85 % 1008,9 hPa 0,0 l/m² 0,2 km/h (0 Bft) NW 0,00 h 0 W/m² 8,8 °C 11,1 °C 0,9 km/h (0 Bft)
14.11.2025 21:00 21,7 °C 10,5 °C 58 % 87 % 1009,3 hPa 0,0 l/m² 0,0 km/h (0 Bft) NW 0,00 h 0 W/m² 8,4 °C 10,5 °C 0,1 km/h (0 Bft)
14.11.2025 22:00 21,6 °C 10,0 °C 58 % 89 % 1009,9 hPa 0,0 l/m² 0,0 km/h (0 Bft) NW 0,00 h 0 W/m² 8,3 °C 10,0 °C 0,0 km/h (0 Bft)
14.11.2025 23:00 21,5 °C 9,8 °C 58 % 90 % 1010,2 hPa 0,0 l/m² 1,0 km/h (0 Bft) NW 0,00 h 0 W/m² 8,3 °C 9,8 °C 2,8 km/h (1 Bft)
15.11.2025 00:00 21,4 °C 9,8 °C 58 % 91 % 1010,8 hPa 0,0 l/m² 1,9 km/h (1 Bft) NW 0,00 h 0 W/m² 8,4 °C 9,7 °C 4,6 km/h (1 Bft)
15.11.2025 01:00 21,4 °C 9,6 °C 58 % 92 % 1011,2 hPa 0,0 l/m² 1,3 km/h (1 Bft) N 0,00 h 0 W/m² 8,3 °C 9,6 °C 4,2 km/h (1 Bft)
15.11.2025 02:00 21,3 °C 9,7 °C 58 % 92 % 1011,8 hPa 0,4 l/m² 1,0 km/h (0 Bft) N-NO 0,00 h 0 W/m² 8,4 °C 9,7 °C 2,8 km/h (1 Bft)
15.11.2025 03:00 21,3 °C 9,4 °C 58 % 92 % 1012,0 hPa 0,4 l/m² 3,4 km/h (1 Bft) NO 0,00 h 0 W/m² 8,2 °C 9,2 °C 7,6 km/h (2 Bft)
15.11.2025 04:00 21,3 °C 8,8 °C 58 % 92 % 1012,5 hPa 0,6 l/m² 5,5 km/h (2 Bft) NO 0,00 h 0 W/m² 7,5 °C 8,2 °C 10,7 km/h (2 Bft)
15.11.2025 05:00 21,3 °C 7,8 °C 58 % 92 % 1012,5 hPa 0,2 l/m² 7,7 km/h (2 Bft) NO 0,00 h 0 W/m² 6,6 °C 6,2 °C 13,9 km/h (3 Bft)
15.11.2025 06:00 21,2 °C 7,2 °C 58 % 92 % 1013,7 hPa 0,0 l/m² 5,2 km/h (1 Bft) NO 0,00 h 0 W/m² 6,0 °C 6,7 °C 10,3 km/h (2 Bft)
15.11.2025 07:00 21,2 °C 7,1 °C 58 % 93 % 1014,1 hPa 0,0 l/m² 5,5 km/h (2 Bft) O-NO 0,00 h 0 W/m² 6,0 °C 6,7 °C 9,9 km/h (2 Bft)
15.11.2025 08:00 21,3 °C 7,2 °C 59 % 93 % 1014,6 hPa 0,2 l/m² 9,9 km/h (2 Bft) O-NO 0,00 h 6 W/m² 6,1 °C 4,5 °C 15,7 km/h (3 Bft)
15.11.2025 09:00 21,4 °C 7,0 °C 59 % 93 % 1014,7 hPa 0,0 l/m² 10,1 km/h (2 Bft) O-NO 0,00 h 24 W/m² 6,0 °C 4,3 °C 16,4 km/h (3 Bft)
15.11.2025 10:00 21,2 °C 7,1 °C 55 % 93 % 1014,7 hPa 0,2 l/m² 13,6 km/h (3 Bft) O 0,00 h 33 W/m² 6,1 °C 2,5 °C 19,2 km/h (3 Bft)
15.11.2025 11:00 21,2 °C 7,1 °C 56 % 94 % 1014,4 hPa 0,0 l/m² 13,6 km/h (3 Bft) O 0,00 h 33 W/m² 6,2 °C 2,4 °C 19,7 km/h (3 Bft)
15.11.2025 12:00 21,2 °C 7,2 °C 58 % 94 % 1014,0 hPa 0,0 l/m² 13,7 km/h (3 Bft) O 0,00 h 38 W/m² 6,3 °C 2,5 °C 21,1 km/h (4 Bft)
15.11.2025 13:00 21,3 °C 7,4 °C 59 % 94 % 1013,7 hPa 0,0 l/m² 12,3 km/h (2 Bft) O 0,37 h 45 W/m² 6,4 °C 3,5 °C 17,2 km/h (3 Bft)
15.11.2025 14:00 21,3 °C 7,7 °C 58 % 93 % 1013,1 hPa 0,0 l/m² 11,4 km/h (2 Bft) O 0,07 h 36 W/m² 6,6 °C 4,3 °C 16,8 km/h (3 Bft)
15.11.2025 15:00 21,3 °C 7,7 °C 59 % 92 % 1012,9 hPa 0,0 l/m² 11,3 km/h (2 Bft) O 0,00 h 13 W/m² 6,5 °C 4,3 °C 16,5 km/h (3 Bft)
15.11.2025 16:00 21,2 °C 7,5 °C 59 % 93 % 1012,4 hPa 0,0 l/m² 9,9 km/h (2 Bft) O 0,00 h 6 W/m² 6,4 °C 4,9 °C 14,8 km/h (3 Bft)
15.11.2025 17:00 21,2 °C 7,4 °C 58 % 93 % 1012,0 hPa 0,0 l/m² 6,6 km/h (2 Bft) O-NO 0,00 h 0 W/m² 6,3 °C 6,5 °C 10,9 km/h (2 Bft)
15.11.2025 18:00 21,2 °C 7,4 °C 58 % 93 % 1011,8 hPa 0,0 l/m² 6,0 km/h (2 Bft) O-NO 0,00 h 0 W/m² 6,3 °C 6,8 °C 10,0 km/h (2 Bft)
15.11.2025 19:00 21,3 °C 7,3 °C 59 % 93 % 1012,0 hPa 0,4 l/m² 2,6 km/h (1 Bft) O 0,00 h 0 W/m² 6,3 °C 7,2 °C 4,5 km/h (1 Bft)
15.11.2025 20:00 21,4 °C 7,3 °C 59 % 93 % 1011,3 hPa 0,8 l/m² 12,0 km/h (2 Bft) O 0,00 h 0 W/m² 6,3 °C 3,7 °C 15,6 km/h (3 Bft)
15.11.2025 21:00 21,5 °C 7,3 °C 59 % 94 % 1010,8 hPa 0,6 l/m² 4,9 km/h (1 Bft) O 0,00 h 0 W/m² 6,4 °C 6,8 °C 8,1 km/h (2 Bft)
15.11.2025 22:00 21,5 °C 7,4 °C 59 % 94 % 1010,3 hPa 0,2 l/m² 9,4 km/h (2 Bft) O 0,00 h 0 W/m² 6,5 °C 5,1 °C 13,3 km/h (3 Bft)
15.11.2025 23:00 21,3 °C 7,5 °C 58 % 94 % 1009,9 hPa 0,0 l/m² 3,7 km/h (1 Bft) O-SO 0,00 h 0 W/m² 6,6 °C 7,1 °C 6,3 km/h (2 Bft)
16.11.2025 00:00 21,4 °C 7,6 °C 58 % 94 % 1009,7 hPa 0,0 l/m² 0,1 km/h (0 Bft) S-SO 0,00 h 0 W/m² 6,7 °C 7,6 °C 0,4 km/h (0 Bft)
16.11.2025 01:00 21,4 °C 7,6 °C 58 % 94 % 1009,2 hPa 0,0 l/m² 0,8 km/h (0 Bft) O 0,00 h 0 W/m² 6,7 °C 7,6 °C 1,5 km/h (1 Bft)
16.11.2025 02:00 21,3 °C 7,3 °C 58 % 94 % 1008,5 hPa 0,0 l/m² 0,0 km/h (0 Bft) O 0,00 h 0 W/m² 6,4 °C 7,3 °C 0,0 km/h (0 Bft)
16.11.2025 03:00 21,3 °C 6,8 °C 58 % 94 % 1007,8 hPa 0,0 l/m² 0,0 km/h (0 Bft) O 0,00 h 0 W/m² 5,9 °C 6,8 °C 0,0 km/h (0 Bft)
16.11.2025 04:00 21,3 °C 6,3 °C 58 % 95 % 1007,3 hPa 0,0 l/m² 0,2 km/h (0 Bft) W-SW 0,00 h 0 W/m² 5,5 °C 6,3 °C 0,3 km/h (0 Bft)
16.11.2025 05:00 21,3 °C 6,4 °C 58 % 95 % 1006,8 hPa 0,0 l/m² 0,9 km/h (0 Bft) O-SO 0,00 h 0 W/m² 5,6 °C 6,4 °C 1,7 km/h (1 Bft)
16.11.2025 06:00 21,3 °C 6,8 °C 58 % 95 % 1006,8 hPa 0,0 l/m² 0,9 km/h (0 Bft) O-SO 0,00 h 0 W/m² 6,0 °C 6,7 °C 1,9 km/h (1 Bft)
16.11.2025 07:00 21,2 °C 6,2 °C 58 % 95 % 1006,9 hPa 0,0 l/m² 0,1 km/h (0 Bft) W-SW 0,00 h 9 W/m² 5,4 °C 6,2 °C 0,2 km/h (0 Bft)
16.11.2025 08:00 21,3 °C 5,9 °C 59 % 95 % 1007,0 hPa 0,0 l/m² 0,0 km/h (0 Bft) S-SW 0,25 h 40 W/m² 5,1 °C 5,9 °C 0,2 km/h (0 Bft)
16.11.2025 09:00 21,6 °C 6,6 °C 59 % 95 % 1006,5 hPa 0,0 l/m² 2,1 km/h (1 Bft) S-SW 0,55 h 52 W/m² 5,8 °C 6,5 °C 3,2 km/h (1 Bft)
16.11.2025 10:00 21,6 °C 8,9 °C 55 % 96 % 1006,0 hPa 0,0 l/m² 5,4 km/h (2 Bft) S-SO 0,88 h 245 W/m² 8,2 °C 8,0 °C 7,9 km/h (2 Bft)
16.11.2025 11:00 21,6 °C 11,4 °C 55 % 95 % 1005,6 hPa 0,0 l/m² 7,6 km/h (2 Bft) SW 1,00 h 206 W/m² 10,7 °C 10,0 °C 11,4 km/h (2 Bft)
16.11.2025 12:00 21,6 °C 11,7 °C 56 % 92 % 1005,2 hPa 0,0 l/m² 8,2 km/h (2 Bft) W-SW 0,95 h 70 W/m² 10,5 °C 10,4 °C 12,6 km/h (3 Bft)
16.11.2025 13:00 21,7 °C 11,9 °C 58 % 89 % 1004,7 hPa 0,0 l/m² 8,7 km/h (2 Bft) SW 0,45 h 51 W/m² 10,2 °C 10,4 °C 12,0 km/h (2 Bft)
16.11.2025 14:00 21,7 °C 11,7 °C 58 % 89 % 1004,3 hPa 0,0 l/m² 5,1 km/h (1 Bft) SW 0,00 h 29 W/m² 10,0 °C 11,5 °C 7,2 km/h (2 Bft)
16.11.2025 15:00 21,6 °C 11,5 °C 58 % 90 % 1004,2 hPa 0,0 l/m² 5,8 km/h (2 Bft) SW 0,00 h 12 W/m² 10,0 °C 11,3 °C 8,1 km/h (2 Bft)
16.11.2025 16:00 21,7 °C 10,8 °C 58 % 91 % 1004,6 hPa 0,2 l/m² 9,4 km/h (2 Bft) NW 0,00 h 5 W/m² 9,4 °C 8,9 °C 14,3 km/h (3 Bft)
16.11.2025 17:00 21,6 °C 8,8 °C 58 % 91 % 1005,2 hPa 1,0 l/m² 11,7 km/h (2 Bft) NW 0,00 h 0 W/m² 7,4 °C 5,4 °C 18,4 km/h (3 Bft)
16.11.2025 18:00 21,4 °C 7,4 °C 59 % 92 % 1005,7 hPa 0,0 l/m² 5,6 km/h (2 Bft) NW 0,00 h 0 W/m² 6,2 °C 6,7 °C 10,0 km/h (2 Bft)
16.11.2025 19:00 21,6 °C 6,7 °C 62 % 92 % 1005,9 hPa 0,0 l/m² 5,5 km/h (2 Bft) NW 0,00 h 0 W/m² 5,4 °C 6,0 °C 10,1 km/h (2 Bft)
16.11.2025 20:00 21,6 °C 6,3 °C 62 % 92 % 1006,1 hPa 0,0 l/m² 5,9 km/h (2 Bft) NW 0,00 h 0 W/m² 5,1 °C 5,7 °C 11,1 km/h (2 Bft)
16.11.2025 21:00 21,8 °C 6,0 °C 62 % 93 % 1006,2 hPa 0,6 l/m² 6,1 km/h (2 Bft) NW 0,00 h 0 W/m² 4,9 °C 5,3 °C 10,5 km/h (2 Bft)
16.11.2025 22:00 21,8 °C 5,6 °C 61 % 93 % 1006,4 hPa 1,4 l/m² 5,2 km/h (1 Bft) NW 0,00 h 0 W/m² 4,6 °C 5,3 °C 9,9 km/h (2 Bft)
16.11.2025 23:00 21,6 °C 5,4 °C 61 % 93 % 1006,4 hPa 0,8 l/m² 3,7 km/h (1 Bft) NW 0,00 h 0 W/m² 4,4 °C 5,1 °C 7,6 km/h (2 Bft)
Min-Datum _ 15.11.25 12.11.25 16.11.25 14.11.25 16.11.25 - 16.11.25 - - - 12.11.25 15.11.25 16.11.25
_ Min-Zeit 11:24 06:01 11:25 14:18 15:14 - 23:16 - - - 03:00 20:14 23:44
Minimum _ 21,1 °C 1,2 °C 54 % 66 % 1004,1 hPa - 0,0 km/h (0 Bft) - - - 0,1 °C -1,1 °C 0,0 km/h (0 Bft)
Max-Datum _ 16.11.25 14.11.25 16.11.25 16.11.25 12.11.25 16.11.25 11.11.25 - 16.11.25 11.11.25 14.11.25 14.11.25 11.11.25
_ Max-Zeit 22:00 13:46 21:00 11:00 02:00 22:03 13:37 - 12:07 11:28 13:16 13:46 13:03
Maximum _ 21,9 °C 17,1 °C 62 % 96 % 1017,6 hPa 1,4 l/m² 23,6 km/h
SW (4 Bft)
- 0,10 h 490 W/m² 12,2 °C 17,1 °C 32,2 km/h
SW (5 Bft)
Durchschnitt _ 21,4 °C 8,4 °C 57 % 88 % 1012,2 hPa #9,0 l/m² 4,1 km/h (1 Bft) SW #37:02 h 44 W/m² 6,5 °C 7,6 °C 6,2 km/h (2 Bft)
© 2009 Mathias Hoßbach